Calgary / Springba, Alberta

7:04 AM MST on February 22, 2017 (GMT -0700)
Springbank

Weather History for CYBW - January, 2013

Change the Weather History Date:

Saturday, January 5, 2013

  Actual Average Record
Temperature  
Mean Temperature 23 °F -  
Max Temperature 35 °F 26 °F 50 °F (2006)
Min Temperature 14 °F 6 °F -27 °F (2014)
Degree Days  
Heating Degree Days 42    
Moisture  
Dew Point 10 °F    
Average Humidity 64    
Maximum Humidity 79    
Minimum Humidity 51    
Precipitation  
Precipitation 0.00 in - - ()
Sea Level Pressure  
Sea Level Pressure 30.19 in    
Wind  
Wind Speed 6 mph ()    
Max Wind Speed 17 mph    
Max Gust Speed 23 mph    
Visibility 15.0 miles    
Events      
Averages and records for this station are not official NWS values.
T = Trace of Precipitation, MM = Missing Value Source: Averaged Metar Reports

Daily Weather History Graph

Daily Weather History Graph

Search for Another Location

Airport or City:

Trip Planner

Search our weather history database for the weather conditions in past years. The results will help you decide how hot, cold, wet, or windy it might be!

Date:

Astronomy

Jan. 05, 2013 Rise Set
Actual Time 8:40 AM MST 4:46 PM MST
Civil Twilight 8:01 AM MST 5:25 PM MST
Nautical Twilight 7:18 AM MST 6:07 PM MST
Astronomical Twilight 6:38 AM MST 6:47 PM MST
Moon 1:27 AM MST (1/5) 11:58 AM MST (1/5)
Length of Visible Light 9h 24m
Length of Day
8h 06m
Last Quarter, 43% of the Moon is Illuminated
Jan 5
Last Quarter
Jan 11
New
Jan 18
First Quarter
Jan 26
Full
Feb 3
Last Quarter

Hourly Weather History & Observations

Time (MST) Temp. Windchill Dew Point Humidity Pressure Visibility Wind Dir Wind Speed Gust Speed Precip Events Conditions
5:00 AM 15 °F - 8 °F 62% 30.29 in 15 mi NW 11.5 mph - -   Scattered Clouds
5:00 AM 14.0 °F -0.2 °F 6.8 °F 73% 30.28 in 15.0 mi NW 12.7 mph - N/A   Partly Cloudy
6:00 AM 15.8 °F 3.4 °F 6.8 °F 68% 30.30 in 15.0 mi NNW 10.4 mph - N/A   Partly Cloudy
7:00 AM 15.8 °F 3.4 °F 8.6 °F 73% 30.32 in 15.0 mi NNW 10.4 mph - N/A   Partly Cloudy
8:00 AM 15.8 °F 6.1 °F 8.6 °F 73% 30.31 in 30.0 mi NW 6.9 mph - N/A   Partly Cloudy
9:00 AM 14.0 °F 6.5 °F 8.6 °F 79% 30.30 in 30.0 mi NW 4.6 mph - N/A   Partly Cloudy
11:00 AM 14.0 °F 5.1 °F 5.0 °F 67% 30.31 in 30.0 mi West 5.8 mph - N/A   Partly Cloudy
12:00 PM 21.2 °F - 8.6 °F 58% 30.24 in 30.0 mi NNW 2.3 mph - N/A   Partly Cloudy
1:00 PM 23.0 °F 18.4 °F 10.4 °F 59% 30.20 in 30.0 mi NW 3.5 mph - N/A   Partly Cloudy
2:00 PM 26.6 °F 22.6 °F 10.4 °F 51% 30.16 in 30.0 mi SE 3.5 mph - N/A   Scattered Clouds
3:00 PM 23.0 °F - 10.4 °F 59% 30.16 in 30.0 mi Calm Calm - N/A   Scattered Clouds
4:00 PM 23.0 °F - 10.4 °F 59% 30.16 in 30.0 mi Calm Calm - N/A   Scattered Clouds
5:00 PM 15 °F - 7 °F 60% 30.16 in 28 mi West 3.5 mph - -   Mostly Cloudy
5:00 PM 15.8 °F 10.2 °F 6.8 °F 68% 30.16 in 30.0 mi NW 3.5 mph - N/A   Mostly Cloudy
6:00 PM 19.4 °F - 10.4 °F 68% 30.12 in 15.0 mi Calm Calm - N/A   Mostly Cloudy
7:00 PM 19.4 °F 14.3 °F 8.6 °F 63% 30.09 in 15.0 mi WSW 3.5 mph - N/A   Mostly Cloudy
8:00 PM 30.2 °F - 14.0 °F 51% 30.04 in 15.0 mi West 2.3 mph - N/A   Mostly Cloudy
9:00 PM 32.0 °F 27.5 °F 19.4 °F 60% 30.01 in 15.0 mi NNW 4.6 mph - N/A   Mostly Cloudy
10:00 PM 35.6 °F 25.5 °F 23.0 °F 60% 29.97 in 15.0 mi WNW 17.3 mph 23.0 mph N/A   Overcast